This is the latest recevied weather packets stored in our database for station/object KG4AGD. If no packets are shown the sender has not sent any weather packets the latest 10 day(s).
| Time | Temp. | Humidity | Pressure | Rain* | Wind** | Luminosity | Snow |
|---|---|---|---|---|---|---|---|
| 1777645045 | 10.56° C | 90% | 1017.6 hPa | 1.27 mm | - | - | - |
| 1777644743 | 10.56° C | 90% | 1017.2 hPa | 1.27 mm | - | - | - |
| 1777644440 | 10.56° C | 91% | 1017.2 hPa | 1.27 mm | - | - | - |
| 1777644138 | 10.56° C | 91% | 1017.2 hPa | 1.27 mm | - | - | - |
| 1777643836 | 10.56° C | 92% | 1017.2 hPa | 1.27 mm | - | - | - |
| 1777643533 | 10.56° C | 91% | 1017.6 hPa | 1.27 mm | - | - | - |
| 1777643231 | 10° C | 89% | 1017.6 hPa | 1.02 mm | - | - | - |
| 1777642627 | 10.56° C | 89% | 1017.6 hPa | 1.02 mm | - | - | - |
| 1777642325 | 10.56° C | 90% | 1017.9 hPa | 0.76 mm | - | - | - |
| 1777642022 | 10.56° C | 88% | 1018.2 hPa | 0.76 mm | - | - | - |
| 1777641720 | 10.56° C | 85% | 1018.2 hPa | 0.51 mm | - | - | - |
| 1777641418 | 10.56° C | 85% | 1017.6 hPa | 0.51 mm | - | - | - |
| 1777641116 | 10.56° C | 84% | 1017.2 hPa | 0.51 mm | - | - | - |
| 1777640814 | 10.56° C | 84% | 1017.2 hPa | 0.51 mm | - | - | - |
| 1777640512 | 11.11° C | 86% | 1017.6 hPa | 0.51 mm | - | - | - |
| 1777640209 | 11.11° C | 81% | 1017.6 hPa | 0.51 mm | - | - | - |
| 1777639303 | 11.11° C | 81% | 1016.5 hPa | 0.25 mm | - | - | - |
| 1777639001 | 11.11° C | 80% | 1016.5 hPa | 0.25 mm | - | - | - |
| 1777638698 | 11.67° C | 75% | 1016.9 hPa | 0.25 mm | - | - | - |
| 1777638396 | 11.67° C | 73% | 1017.2 hPa | 0 mm | - | - | - |
| 1777638094 | 11.67° C | 73% | 1016.5 hPa | 0 mm | - | - | - |
| 1777637792 | 11.67° C | 72% | 1016.5 hPa | 0 mm | - | - | - |
| 1777637490 | 11.67° C | 72% | 1016.5 hPa | 0 mm | - | - | - |
| 1777637187 | 11.67° C | 73% | 1016.5 hPa | 0 mm | - | - | - |
| 1777636885 | 11.67° C | 73% | 1016.5 hPa | 0 mm | - | - | - |
* Rain since midnight (hover to see other rain measurements)
** Current wind speed in m/s (hover to see current wind gust speed)